KOREASAT 5 (MUGUNGWHA 5)

Last updated on Wed Jul 09 2025 00:02:43 GMT+0000 (Coordinated Universal Time)

1 29349U 06034A 25189.62435000 -.00000343 00000+0 00000+0 0 9994 2 29349 0.8937 88.0274 0001922 60.8587 115.7467 1.00270631 37879
UTC large
Height (km)
Speed (km/s)
/
Latitude / Longitude
Inclination (degrees)
Orbital Period (minutes)
Azimuth
Elevation
Range (km)
Doppler Factor

Next 0 passes for location: London (51.5072 / 0.1276)

Sorry there are no passes over London.